Location: *
(51.5000°N, 0.1100°W)
Time: 06:03:59
(UTC+00:00)

IDEFIX/ARIANE 42P - Pass Details

Date: 05 August 2024
Orbit: 782 x 799 km, 98.5° (Epoch: 08 September)

Event Time Altitude Azimuth Distance (km) Brightness Sun altitude
Rises 00:07:01 0° 31° (NNE) 3,282 6.7 -21.6°
Reaches altitude 10° 00:11:03 10° 62° (ENE) 2,348 5.4 -21.6°
Maximum altitude 00:12:57 12° 84° (E) 2,212 5.0 -21.6°
Drops below altitude 10° 00:14:51 10° 106° (ESE) 2,343 4.9 -21.6°
Enters shadow 00:15:27 - 112° (ESE) 2,436 4.9 -21.6°
